Satellite-Ground Cal/Val Site Overpasses Predictions

Prediction of Satellite NPP Overpassing Cal/Val Site: Antarctic Dome C

Ground Cal/Val Site Location: Latitude: -75.10, Longitude: 123.35; Satellite-Ground Site NADIR distance within 100 km.

Table of predicted overpasses for the next 14.0 days since TLE Epoch: 6/30/2020
Interval Starting Time Ending Time Minimum Distance Time Minimum Distance (km)
1 07/01/2020 14:35:47 07/01/2020 14:36:01 07/01/2020 14:35:54 86.68
2 07/02/2020 07:37:19 07/02/2020 07:37:47 07/02/2020 07:37:33 33.06
3 07/03/2020 07:18:34 07/03/2020 07:18:53 07/03/2020 07:18:44 77.09
4 07/05/2020 15:00:50 07/05/2020 15:01:14 07/05/2020 15:01:02 57.37
5 07/06/2020 14:42:01 07/06/2020 14:42:26 07/06/2020 14:42:14 51.65
6 07/07/2020 07:43:42 07/07/2020 07:44:03 07/07/2020 07:43:52 68.49
7 07/08/2020 07:24:50 07/08/2020 07:25:17 07/08/2020 07:25:04 39.45
8 07/10/2020 15:07:18 07/10/2020 15:07:26 07/10/2020 15:07:22 95.33
9 07/11/2020 14:48:18 07/11/2020 14:48:47 07/11/2020 14:48:32 16.05
